Dewpoint
53 53 53 54 53 53 53 53 54 54 54 54 55 55 55 56 56 56 56 56 57 57 56 57 57 57 57 56 57 56 57 55 53 48 49 35 39 55 66 68 64 76 75 71 69 68 68 65 64 65 64 63 63 63 65 65 66 66 62 59 58 58 55 51 46 41 42 45 50 54 55 57 58 59 62 62 62 62 62 62 63 65 65 65 67 68 69 69
54 53 53 53 54 54 53 54 54 54 54 54 54 55 55 55 56 56 56 56 56 56 56 56 57 57 56 56 56 57 57 55 49 45 41 41 60 57 62 70 69 76 71 68 66 65 65 63 62 64 62 61 64 63 65 64 66 63 57 57 56 54 54 51 50 46 42 42 51 54 56 57 58 59 61 60 60 61 60 62 63 64 65 67 68 68 68 68
53 54 53 53 53 53 53 53 53 53 54 54 54 55 55 55 55 56 56 56 56 56 56 56 57 57 56 56 57 57 56 49 47 34 27 59 67 62 62 68 71 74 62 64 64 63 63 62 60 62 61 61 63 63 64 63 64 64 59 54 54 54 53 49 48 48 49 44 51 54 56 57 58 59 61 59 60 60 60 61 63 64 65 66 67 68 68 68
54 53 53 53 53 53 53 53 53 54 54 54 54 55 55 55 55 55 56 56 56 56 56 56 56 56 56 56 57 56 53 52 22 18 21 68 72 70 65 68 73 71 59 62 61 60 61 60 59 60 59 60 60 63 63 62 63 63 62 59 56 56 55 55 54 52 51 44 50 53 56 56 58 59 59 60 59 59 60 62 61 63 65 66 67 67 68 67
53 53 53 53 52 53 52 53 53 54 54 54 55 55 55 55 55 55 55 56 56 56 55 55 56 56 56 57 57 56 52 12 9 17 20 71 71 75 69 68 74 64 60 59 56 56 59 58 58 58 58 58 57 59 60 61 62 53 61 61 59 57 50 50 49 48 46 45 48 52 55 54 58 59 58 59 57 57 59 61 62 64 66 66 67 67 68 67
53 52 52 52 52 53 53 53 53 53 54 54 54 54 55 55 55 55 55 55 55 55 56 56 56 56 56 56 56 55 28 9 16 21 74 71 72 74 71 69 74 59 58 54 52 55 56 57 58 57 57 57 57 55 55 59 59 56 55 56 56 55 53 53 51 47 45 45 48 53 54 57 57 57 58 59 57 56 59 61 62 65 66 67 67 67 67 67
52 52 52 52 53 53 52 53 53 53 53 54 54 54 54 55 55 55 55 55 55 55 55 56 55 56 56 57 56 55 30 11 27 23 57 69 72 72 70 72 71 56 55 53 52 53 54 56 57 57 56 56 55 57 56 55 57 56 54 50 48 49 49 49 48 49 45 44 46 51 56 56 57 56 58 58 57 59 60 62 64 65 66 67 67 67 67 67
52 52 52 52 52 52 53 53 53 53 53 53 54 54 54 55 55 55 55 55 55 55 56 55 56 56 56 54 50 28 36 28 26 26 47 75 69 69 69 67 54 54 55 54 53 52 53 55 55 57 56 54 53 54 54 54 54 54 54 54 54 53 53 52 50 48 46 44 45 52 54 55 56 56 57 57 57 60 61 63 65 66 66 66 67 67 67 67
53 52 52 53 52 53 53 53 53 53 53 53 53 54 55 54 54 55 55 55 55 55 56 55 55 55 55 56 44 16 12 25 23 24 61 66 66 64 61 56 52 48 52 55 53 54 53 53 53 55 53 54 53 50 52 52 50 52 52 53 52 50 50 48 45 42 42 45 43 51 53 55 56 56 56 57 57 61 63 64 65 65 66 66 66 67 67 67
52 52 52 53 53 53 53 53 53 54 53 53 54 54 54 54 54 55 55 55 56 55 55 55 55 55 54 53 43 15 14 20 28 47 65 65 63 59 57 56 51 45 47 49 50 54 52 53 53 54 44 45 45 47 46 49 48 49 50 52 51 51 50 49 46 44 41 42 41 45 50 52 54 54 53 56 59 62 63 64 65 65 65 66 66 67 67 67
52 52 52 53 53 53 53 53 53 53 53 54 54 54 54 54 54 55 55 55 55 56 55 55 56 54 51 55 23 13 17 36 44 59 63 62 60 55 56 56 50 44 44 46 46 52 49 51 53 49 47 45 42 42 44 43 43 41 42 39 38 38 34 34 28 29 36 39 40 42 46 51 50 52 51 55 61 62 63 64 64 64 65 65 66 67 67 67
52 52 52 52 52 53 53 53 52 53 53 53 54 54 54 54 54 54 54 55 55 55 55 56 56 55 55 52 37 14 26 33 45 54 59 58 55 53 55 55 52 44 43 44 44 47 45 43 47 44 42 43 42 42 43 42 41 36 31 26 24 21 19 21 21 24 33 33 41 40 40 45 45 49 52 58 61 62 63 63 64 64 65 65 66 66 67 67
52 52 52 52 52 52 53 53 53 53 53 53 53 54 54 54 53 54 55 55 55 55 55 56 56 54 51 26 35 34 29 27 25 28 29 49 49 51 55 57 51 47 42 42 43 44 42 37 43 42 40 41 41 40 42 40 38 34 35 22 23 21 20 24 24 24 31 36 41 40 37 39 44 47 57 60 61 62 62 63 63 64 64 65 65 65 66 67
52 52 52 52 52 52 53 53 53 53 53 53 53 53 52 52 53 54 56 57 56 54 55 57 55 54 48 27 29 35 36 33 32 32 28 44 42 45 48 57 54 49 47 43 42 44 43 37 38 37 41 39 37 38 34 34 34 33 33 23 22 19 20 24 28 32 30 38 40 40 35 37 39 43 58 60 61 61 61 62 63 63 64 64 65 65 65 66
52 52 52 52 52 52 53 52 53 53 53 53 53 52 52 52 54 58 58 55 55 56 57 57 55 51 37 28 36 38 55 40 39 35 34 39 41 34 43 53 55 50 46 42 37 44 43 41 38 36 34 39 38 33 29 28 21 20 30 25 20 19 22 24 34 31 24 40 40 39 36 34 38 42 58 60 61 61 60 62 62 62 63 63 64 64 65 65
51 51 52 52 52 52 52 52 52 52 53 52 51 51 52 54 58 57 57 56 56 57 56 54 55 54 45 19 12 59 49 42 37 35 34 33 33 22 38 47 49 48 45 45 42 41 43 41 37 37 34 34 34 30 28 27 27 22 29 27 22 19 20 18 21 26 31 41 40 38 36 40 41 50 58 59 60 60 60 61 62 62 62 63 63 64 65 65
52 52 52 52 52 52 52 52 52 52 52 51 51 51 52 55 59 59 59 58 56 55 54 51 54 56 23 17 27 28 27 41 46 46 44 32 28 28 42 41 42 45 44 42 39 37 39 40 39 41 37 31 32 30 25 23 25 29 22 22 23 21 21 21 19 22 37 40 38 39 37 39 47 55 58 59 60 59 59 60 61 61 62 62 63 63 64 65
51 52 52 52 52 52 52 52 52 52 51 50 50 50 49 54 58 58 58 58 56 56 57 57 53 42 23 28 26 26 35 38 44 43 44 43 29 30 37 35 40 41 41 38 37 36 36 37 34 33 31 33 29 27 19 21 27 31 29 23 20 21 16 17 17 18 33 41 38 38 38 39 51 56 58 58 59 59 59 60 61 61 61 62 62 63 64 64
51 51 52 52 52 52 52 52 52 51 50 50 51 50 53 55 56 53 55 56 47 37 29 44 37 22 10 24 29 28 29 38 39 38 37 36 33 27 28 35 39 37 35 35 33 35 32 32 32 31 28 30 29 26 20 28 27 27 26 24 22 19 19 17 18 19 23 25 38 38 37 38 52 55 57 58 59 58 58 60 60 61 61 62 62 62 63 64
52 51 52 52 52 52 52 52 51 50 49 49 43 44 42 30 30 27 46 39 32 31 30 37 43 36 35 33 30 31 33 39 33 37 40 43 31 28 26 30 33 33 32 31 28 34 31 30 27 27 28 28 29 28 26 28 28 24 20 18 16 16 15 17 19 18 20 33 34 37 38 38 49 55 57 58 58 58 58 59 59 60 60 61 61 62 62 63
51 51 51 52 52 51 52 51 50 49 50 47 43 34 28 28 28 26 28 29 30 30 30 30 35 39 35 33 36 33 29 30 40 38 40 43 30 28 27 26 29 29 30 31 27 30 31 30 29 28 27 27 27 27 27 26 25 25 25 23 21 18 19 20 18 20 24 31 35 41 39 39 45 54 56 58 58 57 57 58 59 59 60 60 61 61 62 63
52 52 52 52 52 51 51 50 49 50 50 46 40 31 30 31 31 31 30 27 29 30 30 30 30 31 34 35 34 34 33 30 27 26 28 33 29 31 29 23 25 24 29 29 27 23 25 27 28 27 25 26 26 24 23 24 23 20 21 22 19 20 18 18 16 18 18 22 19 23 37 38 41 53 56 57 57 57 57 58 58 59 59 60 60 61 61 62
52 52 52 52 52 51 50 50 49 49 43 39 38 40 31 34 35 35 32 30 29 30 28 28 28 28 28 29 31 33 30 28 24 24 27 36 29 30 26 22 22 24 27 26 28 25 22 22 24 24 24 24 25 24 21 20 19 19 17 18 18 20 19 19 19 22 21 21 23 33 30 35 47 54 55 56 57 57 58 58 58 59 59 59 60 60 61 61
52 53 52 52 51 51 50 49 48 44 39 40 39 40 35 36 37 35 33 29 24 21 28 27 27 25 25 25 28 31 29 28 27 24 36 34 30 30 25 22 21 24 25 26 28 27 25 21 24 23 23 23 23 23 23 22 22 20 19 18 18 18 18 18 19 17 18 19 25 36 38 39 48 51 54 56 57 57 57 57 58 59 59 60 60 60 61 61
52 52 52 52 51 50 48 48 42 40 41 37 38 40 37 38 39 37 36 28 23 25 28 25 25 22 23 31 32 29 29 29 28 25 34 33 31 27 26 25 24 22 24 25 26 25 25 24 23 23 23 23 22 22 22 22 22 22 21 19 20 20 19 19 19 16 19 17 20 27 22 35 42 48 51 54 55 56 56 56 57 58 58 59 59 59 60 61
53 52 52 51 51 50 48 36 36 41 40 33 33 34 38 39 40 42 33 26 19 20 24 20 22 19 25 27 31 30 29 26 28 27 33 33 33 31 26 23 23 20 23 23 24 25 25 23 22 22 22 22 22 22 22 22 22 22 23 22 20 20 19 18 17 17 21 19 24 31 21 24 38 41 47 52 54 55 56 56 56 57 58 58 58 59 59 60
52 52 52 51 51 49 38 32 38 42 31 27 32 37 39 41 42 42 26 20 21 25 19 25 22 20 22 24 29 23 15 14 28 27 30 38 29 29 26 23 23 25 24 26 26 21 23 22 22 22 21 21 20 20 21 22 21 21 22 22 21 20 19 18 16 15 19 27 28 27 32 26 28 36 41 48 52 54 55 55 55 56 57 57 58 58 59 60
53 52 51 51 50 49 43 42 43 40 37 36 37 39 41 42 44 43 26 20 22 27 20 18 20 23 20 26 27 17 17 17 17 23 25 32 29 25 25 22 21 21 23 23 19 26 22 21 21 21 21 20 20 20 22 22 21 21 19 18 18 17 17 16 15 15 18 21 15 20 27 21 26 29 41 45 49 51 53 54 54 55 56 57 58 58 58 59
52 52 51 50 49 47 46 44 43 41 40 39 40 42 43 44 44 25 22 18 23 21 24 16 19 15 17 24 22 19 10 13 11 15 24 30 29 25 24 22 21 21 23 22 20 23 23 21 21 21 20 20 22 22 22 21 20 22 18 21 19 17 17 15 15 16 25 20 15 17 18 15 17 29 38 44 46 48 50 53 54 54 55 56 57 57 58 58
52 51 51 50 47 42 42 45 44 43 42 43 42 44 45 45 29 24 22 19 25 18 19 20 18 16 17 17 17 15 13 10 13 19 23 24 27 25 24 24 22 22 21 23 21 23 24 33 28 21 20 20 21 22 22 21 21 21 21 20 19 19 20 27 23 22 21 13 15 14 17 14 12 22 33 40 42 45 47 50 52 53 53 54 56 57 57 57
51 50 50 49 44 43 45 40 35 36 40 42 44 45 45 28 27 21 20 21 20 22 20 20 21 22 20 16 8 10 11 11 8 19 19 20 24 24 23 21 20 20 21 21 21 22 22 27 26 25 25 22 22 21 22 22 22 19 17 18 21 20 19 21 18 25 14 11 19 14 16 15 13 22 33 38 41 43 44 46 48 50 51 52 54 55 56 57
50 49 49 48 46 48 42 36 36 40 42 44 45 44 22 15 17 17 19 23 20 22 21 22 22 22 21 20 12 10 9 9 9 13 13 15 21 21 20 23 20 18 19 19 19 23 20 20 24 22 35 22 22 21 20 21 20 20 18 20 16 19 17 16 16 12 11 10 20 14 16 23 16 23 29 34 39 40 43 44 45 47 49 51 51 53 55 56
49 48 48 47 45 43 45 44 44 43 43 44 45 35 20 16 14 16 16 17 21 25 22 26 23 24 22 18 15 16 11 8 9 9 10 13 19 22 21 23 21 21 19 19 19 19 19 20 20 21 25 30 22 20 21 18 19 19 18 18 17 15 12 11 17 17 15 16 19 19 19 11 22 26 25 27 37 40 40 42 43 45 47 49 50 51 53 54
48 48 44 43 43 43 43 46 45 43 43 48 39 28 24 17 16 37 15 18 20 27 27 27 26 23 22 17 16 13 11 8 7 7 10 14 17 21 22 22 21 21 20 22 17 17 17 17 17 19 18 25 23 22 22 21 18 19 18 15 18 18 15 12 13 9 8 12 18 19 14 19 15 19 25 22 32 40 40 40 42 43 45 47 48 49 51 53
48 46 42 41 43 43 44 44 42 43 47 42 33 24 18 16 20 18 20 24 27 27 27 28 25 20 16 16 16 20 21 17 18 13 9 14 15 19 21 20 21 21 19 17 21 22 17 18 20 20 19 23 22 24 23 16 17 17 16 17 18 16 23 13 15 13 14 12 11 22 16 24 16 32 41 26 26 37 41 41 42 42 43 44 45 46 48 50
45 42 42 39 41 41 41 37 36 41 44 37 29 24 18 20 16 22 21 30 28 27 27 23 23 19 19 18 23 24 26 22 19 16 10 13 17 18 21 22 20 21 18 18 21 16 22 16 17 21 20 21 21 22 22 18 18 16 15 15 17 16 13 18 29 23 22 15 12 28 24 23 26 26 27 31 30 31 39 41 41 41 41 43 44 45 46 48
43 42 38 39 40 40 35 35 36 40 44 36 29 24 22 20 22 29 38 28 28 29 26 20 22 19 20 21 18 23 23 22 21 18 16 13 14 25 21 20 23 21 21 22 21 18 16 19 18 16 16 18 19 20 19 19 18 12 14 15 14 16 16 17 14 17 15 11 14 22 16 18 23 18 39 31 33 31 35 39 40 41 42 42 43 44 45 46
43 41 42 42 42 37 35 36 37 44 41 37 33 37 34 26 31 32 31 32 31 31 27 25 24 24 24 24 23 23 23 22 22 22 20 17 18 28 26 27 26 29 30 30 21 22 18 15 15 16 16 17 20 19 18 17 12 12 13 13 14 15 15 19 18 11 11 11 10 12 24 20 23 24 34 30 32 32 34 38 40 41 42 43 43 45 45 45
42 40 34 33 36 35 36 38 39 44 39 34 33 32 37 35 34 33 34 34 33 31 26 25 22 26 27 24 25 22 22 21 22 22 20 19 18 25 26 27 28 30 32 31 20 22 20 15 19 16 15 16 17 17 16 15 16 18 11 11 17 13 19 16 15 20 16 11 15 9 16 10 25 20 29 27 31 33 33 35 38 40 41 42 43 44 45 46
41 36 31 37 35 36 38 39 44 41 37 33 34 33 35 34 35 35 33 33 33 29 28 28 28 27 27 26 23 22 23 23 23 23 23 21 21 28 26 27 27 28 34 36 22 21 16 22 15 16 17 16 16 18 15 16 14 14 13 9 11 19 15 12 20 10 13 15 11 10 6 16 24 27 26 27 31 33 33 35 38 40 41 42 43 44 45 47
42 37 34 38 35 37 38 36 33 36 36 38 35 29 28 30 31 30 29 29 31 34 32 30 29 27 27 24 22 24 25 27 26 23 23 24 25 23 27 27 28 29 34 32 36 35 22 18 15 20 19 14 14 17 15 16 16 15 13 12 9 9 12 9 11 13 16 14 16 9 6 19 23 33 30 27 30 32 35 36 37 39 40 43 43 44 45 46
38 32 29 33 37 38 35 31 30 31 31 27 27 28 28 36 29 29 28 28 27 27 30 29 28 27 27 25 25 29 30 28 27 25 25 24 27 26 26 28 28 30 37 37 38 35 40 33 24 13 14 13 14 16 17 16 16 16 15 14 10 9 13 13 12 13 15 12 26 21 14 12 22 30 32 29 29 31 33 36 37 38 39 41 43 43 45 47
35 33 36 38 39 38 33 30 31 30 29 29 31 30 29 29 29 29 27 27 26 27 26 23 23 25 28 28 28 27 28 29 28 27 30 27 26 27 27 27 28 34 39 38 40 42 43 32 25 21 26 22 19 17 17 19 17 15 16 16 11 8 7 8 11 18 12 17 14 14 16 15 23 35 31 30 32 29 35 36 36 36 37 40 41 42 45 46
37 37 38 39 39 35 31 27 27 28 30 31 31 28 29 29 29 29 28 27 28 26 26 25 26 26 28 28 28 27 28 26 29 27 27 28 28 29 27 27 28 32 37 37 39 36 31 32 24 19 17 16 15 18 16 18 18 17 15 16 14 12 8 10 19 25 17 12 11 12 8 13 24 45 43 39 36 31 30 30 36 35 38 40 41 43 45 48
39 39 39 40 40 34 30 32 30 30 30 30 30 26 27 27 29 30 30 29 29 28 27 25 26 26 28 28 29 28 28 29 29 28 26 29 27 31 27 27 28 29 37 38 41 37 35 34 29 19 15 14 13 13 15 17 16 18 20 15 16 13 11 12 9 19 15 25 19 13 10 26 29 34 33 33 36 34 31 35 38 37 39 37 41 42 47 48
35 29 31 32 33 33 33 33 32 32 31 31 29 26 28 26 28 30 33 31 31 30 28 27 27 28 27 28 28 27 28 28 27 28 28 26 26 28 28 28 28 30 41 40 40 36 38 38 33 29 26 23 25 29 30 34 27 14 15 16 15 15 13 11 17 17 13 23 16 17 22 25 20 19 25 26 32 27 24 26 32 36 38 40 44 45 45 47
39 32 31 30 32 34 31 31 31 33 31 32 27 28 28 28 28 30 33 34 34 30 30 28 29 28 28 27 27 27 28 27 29 29 27 25 28 27 28 28 27 37 40 35 36 36 37 32 34 34 35 35 32 31 30 33 30 29 24 13 15 15 16 12 13 14 27 19 15 22 33 16 16 20 23 28 28 31 30 28 25 27 33 38 40 44 52 47
32 32 36 36 32 28 30 29 32 33 33 32 29 29 28 27 28 28 30 31 31 36 31 28 30 29 29 28 28 27 30 29 30 26 28 28 29 28 26 27 28 35 34 26 33 34 33 32 33 33 31 30 30 30 31 31 30 29 27 21 13 14 16 15 16 23 23 15 15 24 31 25 24 21 20 24 27 26 23 25 22 26 29 36 40 38 40 43
37 37 37 40 32 33 32 33 34 34 33 31 32 30 28 28 28 29 29 30 31 30 32 30 31 30 30 30 30 29 30 26 27 31 29 28 28 28 26 27 29 28 27 27 27 34 34 33 34 32 29 29 30 30 31 30 28 27 25 23 19 13 13 15 15 17 18 22 22 24 31 22 19 17 18 22 27 25 27 34 41 40 31 36 41 43 40 41
35 34 33 38 36 35 35 34 34 33 30 33 32 30 28 29 28 29 30 30 29 30 30 29 29 30 31 30 31 28 29 30 30 29 32 29 28 29 29 28 26 28 27 27 27 31 29 29 31 29 30 29 29 32 30 29 29 28 28 24 19 16 13 13 14 15 23 18 17 22 31 28 26 26 18 19 33 31 40 41 36 37 35 36 39 37 38 40
40 42 42 36 33 33 34 35 33 32 30 30 30 29 30 29 29 31 30 31 31 31 30 29 30 30 30 31 30 30 30 30 32 31 31 30 28 30 29 29 27 26 28 29 31 33 30 30 33 33 28 27 29 29 28 29 29 28 27 26 22 17 14 13 15 16 20 23 23 19 23 25 28 29 28 26 28 31 23 26 35 38 40 47 47 43 41 41
42 45 43 39 32 33 32 33 32 32 28 30 32 31 30 30 30 31 30 32 32 32 32 31 31 31 30 30 30 31 32 32 33 33 33 33 32 31 30 29 28 28 31 31 32 30 32 32 28 31 27 29 28 28 27 28 27 21 20 21 23 21 18 16 16 22 20 17 19 19 18 24 25 31 26 24 22 24 26 23 33 38 43 44 45 46 45 43